Year,Month,Day,Hour,Minute,Value (Times are PST for temperature in C)
2010,05,05,00,00,5.60
2010,05,05,00,01,5.60
2010,05,05,00,02,5.60
2010,05,05,00,03,5.60
2010,05,05,00,04,5.60
2010,05,05,00,05,5.50
2010,05,05,00,06,5.50
2010,05,05,00,07,5.50
2010,05,05,00,08,5.50
2010,05,05,00,09,5.50
2010,05,05,00,10,5.50
2010,05,05,00,11,5.40
2010,05,05,00,12,5.40
2010,05,05,00,13,5.40
2010,05,05,00,14,5.40
2010,05,05,00,15,5.40
2010,05,05,00,16,5.30
2010,05,05,00,17,5.30
2010,05,05,00,18,5.30
2010,05,05,00,19,5.30
2010,05,05,00,20,5.30
2010,05,05,00,21,5.30
2010,05,05,00,22,5.30
2010,05,05,00,23,5.30
2010,05,05,00,24,5.30
2010,05,05,00,25,5.30
2010,05,05,00,26,5.20
2010,05,05,00,27,5.20
2010,05,05,00,28,5.20
2010,05,05,00,29,5.20
2010,05,05,00,30,5.20
2010,05,05,00,31,5.20
2010,05,05,00,32,5.20
2010,05,05,00,33,5.20
2010,05,05,00,34,5.20
2010,05,05,00,35,5.10
2010,05,05,00,36,5.10
2010,05,05,00,37,5.10
2010,05,05,00,38,5.10
2010,05,05,00,39,5.10
2010,05,05,00,40,5.10
2010,05,05,00,41,5.10
2010,05,05,00,42,5.10
2010,05,05,00,43,5.10
2010,05,05,00,44,5.10
2010,05,05,00,45,5.10
2010,05,05,00,46,5.10
2010,05,05,00,47,5.10
2010,05,05,00,48,5.10
2010,05,05,00,49,5.10
2010,05,05,00,50,5.10
2010,05,05,00,51,5.10
2010,05,05,00,52,5.10
2010,05,05,00,53,5.10
2010,05,05,00,54,5.10
2010,05,05,00,55,5.10
2010,05,05,00,56,5.10
2010,05,05,00,57,5.10
2010,05,05,00,58,5.00
2010,05,05,00,59,4.90
2010,05,05,01,00,4.90
2010,05,05,01,01,4.90
2010,05,05,01,02,4.90
2010,05,05,01,03,4.90
2010,05,05,01,04,4.90
2010,05,05,01,05,4.90
2010,05,05,01,06,4.80
2010,05,05,01,07,4.80
2010,05,05,01,08,4.80
2010,05,05,01,09,4.80
2010,05,05,01,10,4.70
2010,05,05,01,11,4.70
2010,05,05,01,12,4.70
2010,05,05,01,13,4.70
2010,05,05,01,14,4.70
2010,05,05,01,15,4.60
2010,05,05,01,16,4.60
2010,05,05,01,17,4.60
2010,05,05,01,18,4.60
2010,05,05,01,19,4.60
2010,05,05,01,20,4.60
2010,05,05,01,21,4.60
2010,05,05,01,22,4.60
2010,05,05,01,23,4.60
2010,05,05,01,24,4.60
2010,05,05,01,25,4.60
2010,05,05,01,26,4.60
2010,05,05,01,27,4.60
2010,05,05,01,28,4.60
2010,05,05,01,29,4.60
2010,05,05,01,30,4.60
2010,05,05,01,31,4.60
2010,05,05,01,32,4.60
2010,05,05,01,33,4.60
2010,05,05,01,34,4.60
2010,05,05,01,35,4.60
2010,05,05,01,36,4.60
2010,05,05,01,37,4.70
2010,05,05,01,38,4.70
2010,05,05,01,39,4.70
2010,05,05,01,40,4.70
2010,05,05,01,41,4.70
2010,05,05,01,42,4.80
2010,05,05,01,43,4.80
2010,05,05,01,44,4.80
2010,05,05,01,45,4.80
2010,05,05,01,46,4.80
2010,05,05,01,47,4.80
2010,05,05,01,48,4.90
2010,05,05,01,49,4.90
2010,05,05,01,50,4.90
2010,05,05,01,51,4.90
2010,05,05,01,52,4.90
2010,05,05,01,53,4.90
2010,05,05,01,54,4.90
2010,05,05,01,55,4.90
2010,05,05,01,56,4.90
2010,05,05,01,57,4.90
2010,05,05,01,58,4.90
2010,05,05,01,59,4.90
2010,05,05,02,00,4.90
2010,05,05,02,01,4.90
2010,05,05,02,02,4.90
2010,05,05,02,03,4.90
2010,05,05,02,04,4.90
2010,05,05,02,05,4.90
2010,05,05,02,06,4.90
2010,05,05,02,07,4.90
2010,05,05,02,08,4.90
2010,05,05,02,09,4.90
2010,05,05,02,10,4.90
2010,05,05,02,11,4.90
2010,05,05,02,12,4.90
2010,05,05,02,13,4.90
2010,05,05,02,14,4.90
2010,05,05,02,15,4.90
2010,05,05,02,16,4.90
2010,05,05,02,17,4.90
2010,05,05,02,18,4.90
2010,05,05,02,19,4.90
2010,05,05,02,20,4.90
2010,05,05,02,21,4.90
2010,05,05,02,22,4.90
2010,05,05,02,23,4.90
2010,05,05,02,24,4.90
2010,05,05,02,25,4.90
2010,05,05,02,26,4.80
2010,05,05,02,27,4.80
2010,05,05,02,28,4.80
2010,05,05,02,29,4.80
2010,05,05,02,30,4.80
2010,05,05,02,31,4.80
2010,05,05,02,32,4.80
2010,05,05,02,33,4.90
2010,05,05,02,34,4.90
2010,05,05,02,35,4.90
2010,05,05,02,36,4.90
2010,05,05,02,37,4.90
2010,05,05,02,38,4.90
2010,05,05,02,39,4.90
2010,05,05,02,40,4.90
2010,05,05,02,41,4.90
2010,05,05,02,42,4.90
2010,05,05,02,43,4.90
2010,05,05,02,44,4.90
2010,05,05,02,45,4.90
2010,05,05,02,46,4.90
2010,05,05,02,47,5.00
2010,05,05,02,48,5.10
2010,05,05,02,49,5.10
2010,05,05,02,50,5.10
2010,05,05,02,51,5.10
2010,05,05,02,52,5.10
2010,05,05,02,53,5.10
2010,05,05,02,54,5.10
2010,05,05,02,55,5.10
2010,05,05,02,56,5.10
2010,05,05,02,57,5.10
2010,05,05,02,58,5.10
2010,05,05,02,59,5.10
2010,05,05,03,00,5.10
2010,05,05,03,01,5.10
2010,05,05,03,02,5.10
2010,05,05,03,03,5.10
2010,05,05,03,04,5.10
2010,05,05,03,05,5.10
2010,05,05,03,06,5.10
2010,05,05,03,07,5.10
2010,05,05,03,08,5.10
2010,05,05,03,09,5.10
2010,05,05,03,10,5.10
2010,05,05,03,11,5.10
2010,05,05,03,12,5.10
2010,05,05,03,13,5.10
2010,05,05,03,14,5.00
2010,05,05,03,15,4.90
2010,05,05,03,16,4.90
2010,05,05,03,17,4.90
2010,05,05,03,18,4.90
2010,05,05,03,19,4.90
2010,05,05,03,20,4.90
2010,05,05,03,21,4.90
2010,05,05,03,22,4.90
2010,05,05,03,23,4.80
2010,05,05,03,24,4.80
2010,05,05,03,25,4.80
2010,05,05,03,26,4.80
2010,05,05,03,27,4.80
2010,05,05,03,28,4.80
2010,05,05,03,29,4.70
2010,05,05,03,30,4.70
2010,05,05,03,31,4.70
2010,05,05,03,32,4.70
2010,05,05,03,33,4.60
2010,05,05,03,34,4.60
2010,05,05,03,35,4.60
2010,05,05,03,36,4.60
2010,05,05,03,37,4.50
2010,05,05,03,38,4.50
2010,05,05,03,39,4.40
2010,05,05,03,40,4.40
2010,05,05,03,41,4.40
2010,05,05,03,42,4.40
2010,05,05,03,43,4.40
2010,05,05,03,44,4.30
2010,05,05,03,45,4.30
2010,05,05,03,46,4.30
2010,05,05,03,47,4.30
2010,05,05,03,48,4.30
2010,05,05,03,49,4.30
2010,05,05,03,50,4.30
2010,05,05,03,51,4.30
2010,05,05,03,52,4.30
2010,05,05,03,53,4.30
2010,05,05,03,54,4.40
2010,05,05,03,55,4.40
2010,05,05,03,56,4.40
2010,05,05,03,57,4.40
2010,05,05,03,58,4.40
2010,05,05,03,59,4.40
2010,05,05,04,00,4.40
2010,05,05,04,01,4.40
2010,05,05,04,02,4.40
2010,05,05,04,03,4.40
2010,05,05,04,04,4.40
2010,05,05,04,05,4.40
2010,05,05,04,06,4.40
2010,05,05,04,07,4.40
2010,05,05,04,08,4.40
2010,05,05,04,09,4.30
2010,05,05,04,10,4.30
2010,05,05,04,11,4.30
2010,05,05,04,12,4.30
2010,05,05,04,13,4.30
2010,05,05,04,14,4.30
2010,05,05,04,15,4.30
2010,05,05,04,16,4.30
2010,05,05,04,17,4.30
2010,05,05,04,18,4.30
2010,05,05,04,19,4.30
2010,05,05,04,20,4.30
2010,05,05,04,21,4.30
2010,05,05,04,22,4.30
2010,05,05,04,23,4.30
2010,05,05,04,24,4.30
2010,05,05,04,25,4.40
2010,05,05,04,26,4.40
2010,05,05,04,27,4.40
2010,05,05,04,28,4.40
2010,05,05,04,29,4.40
2010,05,05,04,30,4.40
2010,05,05,04,31,4.40
2010,05,05,04,32,4.40
2010,05,05,04,33,4.40
2010,05,05,04,34,4.40
2010,05,05,04,35,4.40
2010,05,05,04,36,4.40
2010,05,05,04,37,4.40
2010,05,05,04,38,4.40
2010,05,05,04,39,4.40
2010,05,05,04,40,4.40
2010,05,05,04,41,4.40
2010,05,05,04,42,4.40
2010,05,05,04,43,4.40
2010,05,05,04,44,4.40
2010,05,05,04,45,4.40
2010,05,05,04,46,4.40
2010,05,05,04,47,4.40
2010,05,05,04,48,4.30
2010,05,05,04,49,4.30
2010,05,05,04,50,4.30
2010,05,05,04,51,4.30
2010,05,05,04,52,4.30
2010,05,05,04,53,4.30
2010,05,05,04,54,4.20
2010,05,05,04,55,4.20
2010,05,05,04,56,4.20
2010,05,05,04,57,4.20
2010,05,05,04,58,4.20
2010,05,05,04,59,4.20
2010,05,05,05,00,4.20
2010,05,05,05,01,4.20
2010,05,05,05,02,4.20
2010,05,05,05,03,4.20
2010,05,05,05,04,4.20
2010,05,05,05,05,4.20
2010,05,05,05,06,4.20
2010,05,05,05,07,4.10
2010,05,05,05,08,4.10
2010,05,05,05,09,4.10
2010,05,05,05,10,4.10
2010,05,05,05,11,4.10
2010,05,05,05,12,4.10
2010,05,05,05,13,4.00
2010,05,05,05,14,4.00
2010,05,05,05,15,4.00
2010,05,05,05,16,4.00
2010,05,05,05,17,4.00
2010,05,05,05,18,4.00
2010,05,05,05,19,3.90
2010,05,05,05,20,3.90
2010,05,05,05,21,3.90
2010,05,05,05,22,3.80
2010,05,05,05,23,3.80
2010,05,05,05,24,3.80
2010,05,05,05,25,3.80
2010,05,05,05,26,3.80
2010,05,05,05,27,3.80
2010,05,05,05,28,3.80
2010,05,05,05,29,3.80
2010,05,05,05,30,3.70
2010,05,05,05,31,3.70
2010,05,05,05,32,3.70
2010,05,05,05,33,3.70
2010,05,05,05,34,3.60
2010,05,05,05,35,3.60
2010,05,05,05,36,3.60
2010,05,05,05,37,3.60
2010,05,05,05,38,3.60
2010,05,05,05,39,3.60
2010,05,05,05,40,3.60
2010,05,05,05,41,3.50
2010,05,05,05,42,3.50
2010,05,05,05,43,3.50
2010,05,05,05,44,3.50
2010,05,05,05,45,3.50
2010,05,05,05,46,3.50
2010,05,05,05,47,3.50
2010,05,05,05,48,3.50
2010,05,05,05,49,3.40
2010,05,05,05,50,3.40
2010,05,05,05,51,3.40
2010,05,05,05,52,3.40
2010,05,05,05,53,3.40
2010,05,05,05,54,3.40
2010,05,05,05,55,3.40
2010,05,05,05,56,3.40
2010,05,05,05,57,3.40
2010,05,05,05,58,3.30
2010,05,05,05,59,3.30
2010,05,05,06,00,3.30
2010,05,05,06,01,3.30
2010,05,05,06,02,3.30
2010,05,05,06,03,3.30
2010,05,05,06,04,3.30
2010,05,05,06,05,3.30
2010,05,05,06,06,3.30
2010,05,05,06,07,3.30
2010,05,05,06,08,3.30
2010,05,05,06,09,3.30
2010,05,05,06,10,3.20
2010,05,05,06,11,3.20
2010,05,05,06,12,3.20
2010,05,05,06,13,3.20
2010,05,05,06,14,3.20
2010,05,05,06,15,3.20
2010,05,05,06,16,3.10
2010,05,05,06,17,3.10
2010,05,05,06,18,3.10
2010,05,05,06,19,3.10
2010,05,05,06,20,3.10
2010,05,05,06,21,3.10
2010,05,05,06,22,3.10
2010,05,05,06,23,3.10
2010,05,05,06,24,3.10
2010,05,05,06,25,3.10
2010,05,05,06,26,3.10
2010,05,05,06,27,3.10
2010,05,05,06,28,3.10
2010,05,05,06,29,3.10
2010,05,05,06,30,3.10
2010,05,05,06,31,3.10
2010,05,05,06,32,3.10
2010,05,05,06,33,3.10
2010,05,05,06,34,3.10
2010,05,05,06,35,3.10
2010,05,05,06,36,3.10
2010,05,05,06,37,3.10
2010,05,05,06,38,3.10
2010,05,05,06,39,3.10
2010,05,05,06,40,3.10
2010,05,05,06,41,3.20
2010,05,05,06,42,3.20
2010,05,05,06,43,3.20
2010,05,05,06,44,3.20
2010,05,05,06,45,3.20
2010,05,05,06,46,3.20
2010,05,05,06,47,3.20
2010,05,05,06,48,3.30
2010,05,05,06,49,3.30
2010,05,05,06,50,3.30
2010,05,05,06,51,3.30
2010,05,05,06,52,3.30
2010,05,05,06,53,3.30
2010,05,05,06,54,3.30
2010,05,05,06,55,3.30
2010,05,05,06,56,3.30
2010,05,05,06,57,3.30
2010,05,05,06,58,3.20
2010,05,05,06,59,3.20
2010,05,05,07,00,3.20
2010,05,05,07,01,3.20
2010,05,05,07,02,3.20
2010,05,05,07,03,3.20
2010,05,05,07,04,3.20
2010,05,05,07,05,3.20
2010,05,05,07,06,3.20
2010,05,05,07,07,3.20
2010,05,05,07,08,3.20
2010,05,05,07,09,3.20
2010,05,05,07,10,3.20
2010,05,05,07,11,3.20
2010,05,05,07,12,3.20
2010,05,05,07,13,3.20
2010,05,05,07,14,3.20
2010,05,05,07,15,3.30
2010,05,05,07,16,3.30
2010,05,05,07,17,3.30
2010,05,05,07,18,3.30
2010,05,05,07,19,3.30
2010,05,05,07,20,3.40
2010,05,05,07,21,3.40
2010,05,05,07,22,3.50
2010,05,05,07,23,3.50
2010,05,05,07,24,3.50
2010,05,05,07,25,3.60
2010,05,05,07,26,3.60
2010,05,05,07,27,3.60
2010,05,05,07,28,3.70
2010,05,05,07,29,3.70
2010,05,05,07,30,3.70
2010,05,05,07,31,3.70
2010,05,05,07,32,3.70
2010,05,05,07,33,3.70
2010,05,05,07,34,3.70
2010,05,05,07,35,3.70
2010,05,05,07,36,3.70
2010,05,05,07,37,3.70
2010,05,05,07,38,3.80
2010,05,05,07,39,3.80
2010,05,05,07,40,3.80
2010,05,05,07,41,3.80
2010,05,05,07,42,3.80
2010,05,05,07,43,3.90
2010,05,05,07,44,4.00
2010,05,05,07,45,4.00
2010,05,05,07,46,4.00
2010,05,05,07,47,4.10
2010,05,05,07,48,4.20
2010,05,05,07,49,4.20
2010,05,05,07,50,4.30
2010,05,05,07,51,4.30
2010,05,05,07,52,4.40
2010,05,05,07,53,4.50
2010,05,05,07,54,4.50
2010,05,05,07,55,4.60
2010,05,05,07,56,4.60
2010,05,05,07,57,4.70
2010,05,05,07,58,4.80
2010,05,05,07,59,4.90
2010,05,05,08,00,4.90
2010,05,05,08,01,5.00
2010,05,05,08,02,5.10
2010,05,05,08,03,5.10
2010,05,05,08,04,5.20
2010,05,05,08,05,5.30
2010,05,05,08,06,5.30
2010,05,05,08,07,5.40
2010,05,05,08,08,5.50
2010,05,05,08,09,5.50
2010,05,05,08,10,5.60
2010,05,05,08,11,5.70
2010,05,05,08,12,5.70
2010,05,05,08,13,5.70
2010,05,05,08,14,5.80
2010,05,05,08,15,5.80
2010,05,05,08,16,5.90
2010,05,05,08,17,5.90
2010,05,05,08,18,5.90
2010,05,05,08,19,6.00
2010,05,05,08,20,6.00
2010,05,05,08,21,6.10
2010,05,05,08,22,6.20
2010,05,05,08,23,6.20
2010,05,05,08,24,6.20
2010,05,05,08,25,6.20
2010,05,05,08,26,6.20
2010,05,05,08,27,6.30
2010,05,05,08,28,6.30
2010,05,05,08,29,6.30
2010,05,05,08,30,6.40
2010,05,05,08,31,6.40
2010,05,05,08,32,6.40
2010,05,05,08,33,6.40
2010,05,05,08,34,6.40
2010,05,05,08,35,6.40
2010,05,05,08,36,6.40
2010,05,05,08,37,6.40
2010,05,05,08,38,6.40
2010,05,05,08,39,6.40
2010,05,05,08,40,6.40
2010,05,05,08,41,6.40
2010,05,05,08,42,6.40
2010,05,05,08,43,6.40
2010,05,05,08,44,6.60
2010,05,05,08,45,6.60
2010,05,05,08,46,6.60
2010,05,05,08,47,6.60
2010,05,05,08,48,6.60
2010,05,05,08,49,6.60
2010,05,05,08,50,6.60
2010,05,05,08,51,6.40
2010,05,05,08,52,6.40
2010,05,05,08,53,6.40
2010,05,05,08,54,6.50
2010,05,05,08,55,6.60
2010,05,05,08,56,6.60
2010,05,05,08,57,6.60
2010,05,05,08,58,6.60
2010,05,05,08,59,6.60
2010,05,05,09,00,6.60
2010,05,05,09,01,6.60
2010,05,05,09,02,6.60
2010,05,05,09,03,6.70
2010,05,05,09,04,6.70
2010,05,05,09,05,6.70
2010,05,05,09,06,6.80
2010,05,05,09,07,6.80
2010,05,05,09,08,6.80
2010,05,05,09,09,6.80
2010,05,05,09,10,6.80
2010,05,05,09,11,6.90
2010,05,05,09,12,6.90
2010,05,05,09,13,6.90
2010,05,05,09,14,6.90
2010,05,05,09,15,7.00
2010,05,05,09,16,7.00
2010,05,05,09,17,6.90
2010,05,05,09,18,6.90
2010,05,05,09,19,6.90
2010,05,05,09,20,6.90
2010,05,05,09,21,6.90
2010,05,05,09,22,6.90
2010,05,05,09,23,7.00
2010,05,05,09,24,7.00
2010,05,05,09,25,7.00
2010,05,05,09,26,7.10
2010,05,05,09,27,7.10
2010,05,05,09,28,7.20
2010,05,05,09,29,7.20
2010,05,05,09,30,7.20
2010,05,05,09,31,7.20
2010,05,05,09,32,7.30
2010,05,05,09,33,7.30
2010,05,05,09,34,7.40
2010,05,05,09,35,7.50
2010,05,05,09,36,7.50
2010,05,05,09,37,7.60
2010,05,05,09,38,7.60
2010,05,05,09,39,7.70
2010,05,05,09,40,7.70
2010,05,05,09,41,7.80
2010,05,05,09,42,7.80
2010,05,05,09,43,7.80
2010,05,05,09,44,7.90
2010,05,05,09,45,7.90
2010,05,05,09,46,7.90
2010,05,05,09,47,7.90
2010,05,05,09,48,7.90
2010,05,05,09,49,7.80
2010,05,05,09,50,7.80
2010,05,05,09,51,7.80
2010,05,05,09,52,7.80
2010,05,05,09,53,7.80
2010,05,05,09,54,7.80
2010,05,05,09,55,7.90
2010,05,05,09,56,7.90
2010,05,05,09,57,7.90
2010,05,05,09,58,7.90
2010,05,05,09,59,8.00
2010,05,05,10,00,8.00
2010,05,05,10,01,8.10
2010,05,05,10,02,8.10
2010,05,05,10,03,8.10
2010,05,05,10,04,8.10
2010,05,05,10,05,8.10
2010,05,05,10,06,8.10
2010,05,05,10,07,8.10
2010,05,05,10,08,8.10
2010,05,05,10,09,8.10
2010,05,05,10,10,8.10
2010,05,05,10,11,8.20
2010,05,05,10,12,8.20
2010,05,05,10,13,8.20
2010,05,05,10,14,8.20
2010,05,05,10,15,8.20
2010,05,05,10,16,8.20
2010,05,05,10,17,8.30
2010,05,05,10,18,8.30
2010,05,05,10,19,8.30
2010,05,05,10,20,8.20
2010,05,05,10,21,8.20
2010,05,05,10,22,8.20
2010,05,05,10,23,8.20
2010,05,05,10,24,8.20
2010,05,05,10,25,8.20
2010,05,05,10,26,8.20
2010,05,05,10,27,8.20
2010,05,05,10,28,8.30
2010,05,05,10,29,8.30
2010,05,05,10,30,8.20
2010,05,05,10,31,8.20
2010,05,05,10,32,8.20
2010,05,05,10,33,8.20
2010,05,05,10,34,8.10
2010,05,05,10,35,8.10
2010,05,05,10,36,8.20
2010,05,05,10,37,8.20
2010,05,05,10,38,8.20
2010,05,05,10,39,8.20
2010,05,05,10,40,8.20
2010,05,05,10,41,8.20
2010,05,05,10,42,8.20
2010,05,05,10,43,8.30
2010,05,05,10,44,8.30
2010,05,05,10,45,8.30
2010,05,05,10,46,8.30
2010,05,05,10,47,8.30
2010,05,05,10,48,8.40
2010,05,05,10,49,8.40
2010,05,05,10,50,8.30
2010,05,05,10,51,8.40
2010,05,05,10,52,8.40
2010,05,05,10,53,8.40
2010,05,05,10,54,8.40
2010,05,05,10,55,8.50
2010,05,05,10,56,8.40
2010,05,05,10,57,8.40
2010,05,05,10,58,8.40
2010,05,05,10,59,8.30
2010,05,05,11,00,8.30
2010,05,05,11,01,8.30
2010,05,05,11,02,8.30
2010,05,05,11,03,8.30
2010,05,05,11,04,8.40
2010,05,05,11,05,8.40
2010,05,05,11,06,8.50
2010,05,05,11,07,8.50
2010,05,05,11,08,8.50
2010,05,05,11,09,8.60
2010,05,05,11,10,8.70
2010,05,05,11,11,8.70
2010,05,05,11,12,8.70
2010,05,05,11,13,8.70
2010,05,05,11,14,8.70
2010,05,05,11,15,8.70
2010,05,05,11,16,8.70
2010,05,05,11,17,8.70
2010,05,05,11,18,8.70
2010,05,05,11,19,8.70
2010,05,05,11,20,8.70
2010,05,05,11,21,8.80
2010,05,05,11,22,8.80
2010,05,05,11,23,8.80
2010,05,05,11,24,8.80
2010,05,05,11,25,8.90
2010,05,05,11,26,8.90
2010,05,05,11,27,8.90
2010,05,05,11,28,8.80
2010,05,05,11,29,8.90
2010,05,05,11,30,8.90
2010,05,05,11,31,8.90
2010,05,05,11,32,8.90
2010,05,05,11,33,8.90
2010,05,05,11,34,8.80
2010,05,05,11,35,8.80
2010,05,05,11,36,8.70
2010,05,05,11,37,8.70
2010,05,05,11,38,8.70
2010,05,05,11,39,8.80
2010,05,05,11,40,8.70
2010,05,05,11,41,8.80
2010,05,05,11,42,8.80
2010,05,05,11,43,8.80
2010,05,05,11,44,8.90
2010,05,05,11,45,8.90
2010,05,05,11,46,8.80
2010,05,05,11,47,8.80
2010,05,05,11,48,8.80
2010,05,05,11,49,8.80
2010,05,05,11,50,8.90
2010,05,05,11,51,8.90
2010,05,05,11,52,8.90
2010,05,05,11,53,9.00
2010,05,05,11,54,9.00
2010,05,05,11,55,9.10
2010,05,05,11,56,9.10
2010,05,05,11,57,9.00
2010,05,05,11,58,9.00
2010,05,05,11,59,9.00
2010,05,05,12,00,9.00
2010,05,05,12,01,9.00
2010,05,05,12,02,9.00
2010,05,05,12,03,9.10
2010,05,05,12,04,9.20
2010,05,05,12,05,9.20
2010,05,05,12,06,9.20
2010,05,05,12,07,9.20
2010,05,05,12,08,9.20
2010,05,05,12,09,9.20
2010,05,05,12,10,9.20
2010,05,05,12,11,9.30
2010,05,05,12,12,9.30
2010,05,05,12,13,9.30
2010,05,05,12,14,9.40
2010,05,05,12,15,9.50
2010,05,05,12,16,9.50
2010,05,05,12,17,9.40
2010,05,05,12,18,9.50
2010,05,05,12,19,9.50
2010,05,05,12,20,9.60
2010,05,05,12,21,9.70
2010,05,05,12,22,9.70
2010,05,05,12,23,9.70
2010,05,05,12,24,9.70
2010,05,05,12,25,9.70
2010,05,05,12,26,9.70
2010,05,05,12,27,9.70
2010,05,05,12,28,9.70
2010,05,05,12,29,9.70
2010,05,05,12,30,9.70
2010,05,05,12,31,9.80
2010,05,05,12,32,9.80
2010,05,05,12,33,9.80
2010,05,05,12,34,9.80
2010,05,05,12,35,9.90
2010,05,05,12,36,9.90
2010,05,05,12,37,10.00
2010,05,05,12,38,10.10
2010,05,05,12,39,10.10
2010,05,05,12,40,10.10
2010,05,05,12,41,10.10
2010,05,05,12,42,10.10
2010,05,05,12,43,10.20
2010,05,05,12,44,10.20
2010,05,05,12,45,10.30
2010,05,05,12,46,10.30
2010,05,05,12,47,10.30
2010,05,05,12,48,10.30
2010,05,05,12,49,10.30
2010,05,05,12,50,10.30
2010,05,05,12,51,10.30
2010,05,05,12,52,10.30
2010,05,05,12,53,10.30
2010,05,05,12,54,10.30
2010,05,05,12,55,10.30
2010,05,05,12,56,10.40
2010,05,05,12,57,10.40
2010,05,05,12,58,10.40
2010,05,05,12,59,10.40
2010,05,05,13,00,10.40
2010,05,05,13,01,10.40
2010,05,05,13,02,10.40
2010,05,05,13,03,10.40
2010,05,05,13,04,10.40
2010,05,05,13,05,10.40
2010,05,05,13,06,10.40
2010,05,05,13,07,10.40
2010,05,05,13,08,10.30
2010,05,05,13,09,10.20
2010,05,05,13,10,10.20
2010,05,05,13,11,10.10
2010,05,05,13,12,10.20
2010,05,05,13,13,10.20
2010,05,05,13,14,10.20
2010,05,05,13,15,10.30
2010,05,05,13,16,10.20
2010,05,05,13,17,10.10
2010,05,05,13,18,10.10
2010,05,05,13,19,10.10
2010,05,05,13,20,10.20
2010,05,05,13,21,10.20
2010,05,05,13,22,10.30
2010,05,05,13,23,10.30
2010,05,05,13,24,10.30
2010,05,05,13,25,10.30
2010,05,05,13,26,10.20
2010,05,05,13,27,10.20
2010,05,05,13,28,10.20
2010,05,05,13,29,10.30
2010,05,05,13,30,10.40
2010,05,05,13,31,10.40
2010,05,05,13,32,10.40
2010,05,05,13,33,10.40
2010,05,05,13,34,10.40
2010,05,05,13,35,10.40
2010,05,05,13,36,10.40
2010,05,05,13,37,10.40
2010,05,05,13,38,10.40
2010,05,05,13,39,10.40
2010,05,05,13,40,10.50
2010,05,05,13,41,10.60
2010,05,05,13,42,10.60
2010,05,05,13,43,10.70
2010,05,05,13,44,10.80
2010,05,05,13,45,10.80
2010,05,05,13,46,10.80
2010,05,05,13,47,10.70
2010,05,05,13,48,10.60
2010,05,05,13,49,10.60
2010,05,05,13,50,10.60
2010,05,05,13,51,10.60
2010,05,05,13,52,10.60
2010,05,05,13,53,10.60
2010,05,05,13,54,10.60
2010,05,05,13,55,10.70
2010,05,05,13,56,10.80
2010,05,05,13,57,10.80
2010,05,05,13,58,10.80
2010,05,05,13,59,10.80
2010,05,05,14,00,10.90
2010,05,05,14,01,10.90
2010,05,05,14,02,11.00
2010,05,05,14,03,11.10
2010,05,05,14,04,11.10
2010,05,05,14,05,11.20
2010,05,05,14,06,11.20
2010,05,05,14,07,11.30
2010,05,05,14,08,11.40
2010,05,05,14,09,11.60
2010,05,05,14,10,11.70
2010,05,05,14,11,11.80
2010,05,05,14,12,11.90
2010,05,05,14,13,12.00
2010,05,05,14,14,12.00
2010,05,05,14,15,12.00
2010,05,05,14,16,12.00
2010,05,05,14,17,11.90
2010,05,05,14,18,11.80
2010,05,05,14,19,11.70
2010,05,05,14,20,11.60
2010,05,05,14,21,11.60
2010,05,05,14,22,11.60
2010,05,05,14,23,11.60
2010,05,05,14,24,11.60
2010,05,05,14,25,11.60
2010,05,05,14,26,11.60
2010,05,05,14,27,11.60
2010,05,05,14,28,11.60
2010,05,05,14,29,11.70
2010,05,05,14,30,11.70
2010,05,05,14,31,11.70
2010,05,05,14,32,11.70
2010,05,05,14,33,11.70
2010,05,05,14,34,11.70
2010,05,05,14,35,11.70
2010,05,05,14,36,11.60
2010,05,05,14,37,11.50
2010,05,05,14,38,11.40
2010,05,05,14,39,11.40
2010,05,05,14,40,11.40
2010,05,05,14,41,11.40
2010,05,05,14,42,11.40
2010,05,05,14,43,11.40
2010,05,05,14,44,11.40
2010,05,05,14,45,11.40
2010,05,05,14,46,11.40
2010,05,05,14,47,11.50
2010,05,05,14,48,11.60
2010,05,05,14,49,11.60
2010,05,05,14,50,11.70
2010,05,05,14,51,11.80
2010,05,05,14,52,11.80
2010,05,05,14,53,11.80
2010,05,05,14,54,11.80
2010,05,05,14,55,11.80
2010,05,05,14,56,11.80
2010,05,05,14,57,11.80
2010,05,05,14,58,11.90
2010,05,05,14,59,11.90
2010,05,05,15,00,11.90
2010,05,05,15,01,11.90
2010,05,05,15,02,11.80
2010,05,05,15,03,11.80
2010,05,05,15,04,11.80
2010,05,05,15,05,11.70
2010,05,05,15,06,11.70
2010,05,05,15,07,11.70
2010,05,05,15,08,11.80
2010,05,05,15,09,11.80
2010,05,05,15,10,11.80
2010,05,05,15,11,11.80
2010,05,05,15,12,11.80
2010,05,05,15,13,11.80
2010,05,05,15,14,11.70
2010,05,05,15,15,11.70
2010,05,05,15,16,11.80
2010,05,05,15,17,12.00
2010,05,05,15,18,12.10
2010,05,05,15,19,12.10
2010,05,05,15,20,12.10
2010,05,05,15,21,12.10
2010,05,05,15,22,12.10
2010,05,05,15,23,12.20
2010,05,05,15,24,12.20
2010,05,05,15,25,12.30
2010,05,05,15,26,12.40
2010,05,05,15,27,12.50
2010,05,05,15,28,12.50
2010,05,05,15,29,12.40
2010,05,05,15,30,12.30
2010,05,05,15,31,12.30
2010,05,05,15,32,12.40
2010,05,05,15,33,12.40
2010,05,05,15,34,12.40
2010,05,05,15,35,12.50
2010,05,05,15,36,12.50
2010,05,05,15,37,12.60
2010,05,05,15,38,12.60
2010,05,05,15,39,12.70
2010,05,05,15,40,12.80
2010,05,05,15,41,12.80
2010,05,05,15,42,12.80
2010,05,05,15,43,12.80
2010,05,05,15,44,12.80
2010,05,05,15,45,12.80
2010,05,05,15,46,12.70
2010,05,05,15,47,12.60
2010,05,05,15,48,12.50
2010,05,05,15,49,12.50
2010,05,05,15,50,12.50
2010,05,05,15,51,12.30
2010,05,05,15,52,12.30
2010,05,05,15,53,12.30
2010,05,05,15,54,12.30
2010,05,05,15,55,12.30
2010,05,05,15,56,12.30
2010,05,05,15,57,12.30
2010,05,05,15,58,12.30
2010,05,05,15,59,12.30
2010,05,05,16,00,12.30
2010,05,05,16,01,12.40
2010,05,05,16,02,12.40
2010,05,05,16,03,12.50
2010,05,05,16,04,12.50
2010,05,05,16,05,12.60
2010,05,05,16,06,12.70
2010,05,05,16,07,12.70
2010,05,05,16,08,12.80
2010,05,05,16,09,12.80
2010,05,05,16,10,12.80
2010,05,05,16,11,12.80
2010,05,05,16,12,12.80
2010,05,05,16,13,12.80
2010,05,05,16,14,12.80
2010,05,05,16,15,12.80
2010,05,05,16,16,12.80
2010,05,05,16,17,12.80
2010,05,05,16,18,12.80
2010,05,05,16,19,12.80
2010,05,05,16,20,12.80
2010,05,05,16,21,12.80
2010,05,05,16,22,12.80
2010,05,05,16,23,12.80
2010,05,05,16,24,12.70
2010,05,05,16,25,12.70
2010,05,05,16,26,12.70
2010,05,05,16,27,12.80
2010,05,05,16,28,12.80
2010,05,05,16,29,12.90
2010,05,05,16,30,13.00
2010,05,05,16,31,13.10
2010,05,05,16,32,13.10
2010,05,05,16,33,13.20
2010,05,05,16,34,13.20
2010,05,05,16,35,13.20
2010,05,05,16,36,13.30
2010,05,05,16,37,13.30
2010,05,05,16,38,13.10
2010,05,05,16,39,13.10
2010,05,05,16,40,13.00
2010,05,05,16,41,13.00
2010,05,05,16,42,12.90
2010,05,05,16,43,13.00
2010,05,05,16,44,13.10
2010,05,05,16,45,13.20
2010,05,05,16,46,13.20
2010,05,05,16,47,13.20
2010,05,05,16,48,13.10
2010,05,05,16,49,13.00
2010,05,05,16,50,12.90
2010,05,05,16,51,12.90
2010,05,05,16,52,12.90
2010,05,05,16,53,12.80
2010,05,05,16,54,12.90
2010,05,05,16,55,13.00
2010,05,05,16,56,13.00
2010,05,05,16,57,13.10
2010,05,05,16,58,13.00
2010,05,05,16,59,13.00
2010,05,05,17,00,13.00
2010,05,05,17,01,13.00
2010,05,05,17,02,13.00
2010,05,05,17,03,13.00
2010,05,05,17,04,13.10
2010,05,05,17,05,13.10
2010,05,05,17,06,13.20
2010,05,05,17,07,13.20
2010,05,05,17,08,13.20
2010,05,05,17,09,13.30
2010,05,05,17,10,13.30
2010,05,05,17,11,13.40
2010,05,05,17,12,13.50
2010,05,05,17,13,13.60
2010,05,05,17,14,13.50
2010,05,05,17,15,13.50
2010,05,05,17,16,13.40
2010,05,05,17,17,13.30
2010,05,05,17,18,13.20
2010,05,05,17,19,13.20
2010,05,05,17,20,13.20
2010,05,05,17,21,13.20
2010,05,05,17,22,13.20
2010,05,05,17,23,13.30
2010,05,05,17,24,13.30
2010,05,05,17,25,13.20
2010,05,05,17,26,13.20
2010,05,05,17,27,13.30
2010,05,05,17,28,13.20
2010,05,05,17,29,13.20
2010,05,05,17,30,13.10
2010,05,05,17,31,13.00
2010,05,05,17,32,12.80
2010,05,05,17,33,12.80
2010,05,05,17,34,12.80
2010,05,05,17,35,12.80
2010,05,05,17,36,12.90
2010,05,05,17,37,13.00
2010,05,05,17,38,13.00
2010,05,05,17,39,13.00
2010,05,05,17,40,13.00
2010,05,05,17,41,13.00
2010,05,05,17,42,13.00
2010,05,05,17,43,13.00
2010,05,05,17,44,13.00
2010,05,05,17,45,13.00
2010,05,05,17,46,13.00
2010,05,05,17,47,12.90
2010,05,05,17,48,12.80
2010,05,05,17,49,12.90
2010,05,05,17,50,12.90
2010,05,05,17,51,12.90
2010,05,05,17,52,12.90